sat.trackr.live / text

‹ back to catalog

STARLINK-4649

NORAD 53831 · 2022-114P

PAYLOAD ACTIVE UNKNOWN

§ Identity

Operator
Country
US
Launch date
2022-09-19
Launch site
AFETR
Launch vehicle
Mass (kg)
RCS (m²)

Purposes: comms

External: N2YO · Heavens-Above · Gunter

§ Orbital elements

Epoch: 2026-09-20T06:46:31.517472Z

Period
93.85 min
Inclination
53.1613°
Eccentricity
0.0001253
Mean motion
15.34388824 rev/d
Perigee alt
461.9 km
Apogee alt
463.6 km
Semi-major
6,840.9 km
B*
2.4805e-5
RAAN
140.4067°
Arg perigee
88.5238°
Mean anomaly
271.5908°
Rev number
22,234

§ Raw data

STARLINK-46491 53831U 22114P   26263.28230923  .00000462  00000+0  24805-4 0  99922 53831  53.1613 140.4067 0001253  88.5238 271.5908 15.34388824222349

JSON: /api/v1/satellites/53831 · /tle

For live sub-satellite position, see the globe view (requires WebGL).

§ Visibility from observer

Set your observer location to see the next 7 days of passes ≥ 10°. The values pass through the URL so the page stays shareable.

No JS? Fill the form by hand. The geolocation button needs JavaScript.